This demonstration page uses our WeatherBlox Daily Observations layout. Learn more.

Left ArrowRight Arrow

Hourly Observations for October 27, 2021

Temp ( °F °C ) Dew Point ( °F °C ) Humidity (%) Winds ( mph kmh ) Pressure ( in mb ) Visibility ( mi km ) Precip ( " mm )
12:51 am 00:51 Clear 50 10 32 undefined 50 50 NNW 6 9 29.99 1016 10 16 N/A
1:51 am 01:51 Clear 49 9.4 31 -0.6 50 50 WNW 12 19 30.01 1016 10 16 N/A
2:51 am 02:51 Clear 46 7.8 31 -0.6 56 56 W 10 17 30.01 1016 10 16 N/A
3:51 am 03:51 Clear 49 9.4 30 -1.1 48 48 WNW 14 22 30.02 1017 10 16 N/A
4:51 am 04:51 Clear 46 7.8 28 -2.2 50 50 NNW 9 15 30.04 1017 10 16 N/A
5:51 am 05:51 Clear 47 8.3 27 -2.8 46 46 NNW 10 17 30.06 1018 10 16 N/A
6:51 am 06:51 Sunny 46 7.8 27 -2.8 47 47 NW 10 17 30.09 1019 10 16 N/A
7:51 am 07:51 Sunny 52 11.1 27 -2.8 38 38 NW 12 19 30.12 1020 10 16 N/A
8:51 am 08:51 Sunny 55 12.8 27 -2.8 34 34 WNW 15 24 30.14 1021 10 16 N/A
9:51 am 09:51 Sunny 59 15 27 -2.8 29 29 WNW 12 19 30.13 1020 10 16 N/A
10:51 am 10:51 Sunny 62 16.7 24 -4.4 23 23 WNW 12 19 30.11 1020 10 16 N/A
11:51 am 11:51 Sunny 66 18.9 25 -3.9 21 21 NNW 10 17 30.06 1018 10 16 N/A
12:51 pm 12:51 Sunny 69 20.6 25 -3.9 19 19 WNW 13 20 30.03 1017 10 16 N/A
1:51 pm 13:51 Sunny 72 22.2 24 -4.4 17 17 NW 16 26 30.00 1016 10 16 N/A
2:51 pm 14:51 Sunny 72 22.2 23 -5 16 16 WNW 16 26 29.99 1016 10 16 N/A
3:51 pm 15:51 Sunny 72 22.2 23 -5 16 16 NW 18 30 29.97 1015 10 16 N/A
4:51 pm 16:51 Sunny 71 21.7 22 -5.6 16 16 WNW 17 28 29.97 1015 10 16 N/A
5:51 pm 17:51 Clear 66 18.9 22 -5.6 19 19 WNW 10 17 29.99 1016 10 16 N/A
6:51 pm 18:51 Clear 60 15.6 23 -5 24 24 NW 12 19 30.01 1016 10 16 N/A
7:51 pm 19:51 Clear 60 15.6 23 -5 24 24 WNW 9 15 30.01 1016 10 16 N/A
8:51 pm 20:51 Clear 59 15 24 -4.4 26 26 NW 10 17 30.02 1017 10 16 N/A
9:51 pm 21:51 Clear 56 13.3 23 -5 28 28 NNW 9 15 30.02 1017 10 16 N/A
10:51 pm 22:51 Clear 52 11.1 22 -5.6 31 31 NW 7 11 30.03 1017 10 16 N/A
11:51 pm 23:51 Clear 46 7.8 22 -5.6 38 38 N N/A 30.04 1017 10 16 N/A

Powered by AerisWeather